Tracking 29892 objects as of 21-Nov-2024
HD Live streaming from Space Station
objects crossing your sky now

NOAA 16 DEB

Track NOAA 16 DEB now!
10-day predictions


NORAD ID: 41409
Int'l Code: 2000-055KN
Perigee: 767.8 km
Apogee: 812.2 km
Inclination: 98.7 °
Period: 100.5 minutes
Semi major axis: 7160 km
RCS: Unknown
Launch date: September 21, 2000
Source: United States (US)
Launch site: AIR FORCE WESTERN TEST RANGE (AFWTR)

Note: This is SATELLITE DEBRIS
Your satellite tracking list
Your tracking list is empty




NASA's NSSDC Master Catalog

Two Line Element Set (TLE):
1 41409U 00055KN  24323.15464080  .00008285  00000-0  30441-2 0  9997
2 41409  98.6682  34.8274 0030967 120.8819 239.5417 14.32663037453133
Source of the keplerian elements: AFSPC